Wind_Speed
13 11 10 11 13 11 12 11 12 12 12 15 18 19 23 24 22 18 13 20 17 17 13 15 13 9 10 9 11 5 6 4 2 2 2 1 1 2 3 3 3 3 4
13 12 10 12 14 14 12 11 13 15 14 14 17 19 20 23 24 25 21 22 20 14 11 9 10 11 9 10 10 6 4 4 2 1 1 2 4 6 5 3 1 2 4
12 13 12 12 15 15 14 12 14 15 15 15 15 17 19 21 24 26 23 22 25 21 19 18 11 7 15 10 8 6 5 2 1 2 2 4 6 7 5 1 3 4 5
10 13 12 11 13 14 14 13 13 15 15 16 16 16 17 18 19 21 21 17 20 18 16 16 15 13 13 9 6 5 3 2 2 2 3 6 5 3 1 3 5 8 11
8 11 10 11 10 10 11 11 13 14 17 17 16 15 15 17 18 18 16 14 15 14 14 14 13 11 10 7 6 4 2 1 1 3 6 7 5 4 3 5 8 11 14
8 7 8 9 10 10 10 11 12 14 17 20 21 20 18 18 17 17 16 15 14 11 11 11 10 9 8 7 6 4 3 2 3 6 8 7 6 4 6 9 12 15 17
10 8 7 7 9 10 10 11 12 14 16 17 18 19 19 21 21 19 17 16 14 11 9 7 7 7 7 6 5 4 3 1 3 6 5 5 5 7 9 12 15 18 20
10 10 8 8 8 9 9 9 10 11 12 14 15 16 16 17 17 18 18 19 17 14 10 6 6 5 4 4 4 3 1 2 4 5 4 7 9 11 14 17 20 22 24
7 8 8 8 9 9 9 9 9 9 10 10 11 11 12 13 13 13 13 14 13 13 13 12 11 10 7 5 4 2 1 1 4 5 5 11 12 15 17 20 22 24 24
5 5 5 5 7 8 8 8 8 9 9 8 8 8 9 9 9 9 10 9 8 7 7 5 6 7 5 5 3 2 3 4 6 9 9 15 16 19 20 22 23 24 23
4 2 3 4 4 5 5 6 7 7 8 8 9 9 9 9 9 8 7 6 5 4 3 2 3 2 3 3 4 6 7 9 11 13 13 19 20 22 24 26 26 27 27
7 5 3 2 1 1 2 3 4 5 6 7 7 8 8 9 8 8 7 7 8 7 7 7 6 6 6 7 9 10 12 14 15 17 18 21 23 24 26 27 27 27 28
11 9 7 5 4 3 3 2 2 3 3 5 6 6 7 8 9 9 9 9 9 9 10 10 10 10 11 11 12 14 15 17 18 20 21 22 25 26 27 29 30 30 31
12 11 9 8 7 7 6 6 6 7 7 7 7 7 8 9 9 9 10 11 12 13 12 13 13 13 14 15 16 17 18 20 22 23 25 26 27 31 31 31 34 35 36
15 12 9 10 10 9 9 9 10 10 10 10 11 9 10 11 13 14 15 15 16 16 17 18 18 18 19 20 21 21 22 24 26 28 29 31 32 33 37 39 38 39 40
17 13 12 12 11 11 11 12 12 12 11 10 10 11 14 17 18 20 20 20 20 19 21 21 21 22 22 23 25 25 26 27 29 30 32 34 34 35 35 39 44 40 41
20 15 16 13 13 13 13 13 13 13 11 11 12 15 19 20 22 24 23 22 21 19 19 19 19 20 21 21 23 25 26 27 29 30 32 33 34 35 38 37 40 38 42
25 24 22 18 16 15 15 15 15 15 16 15 17 20 22 23 25 23 20 19 20 20 21 21 21 21 21 22 23 24 25 26 27 28 31 31 31 33 34 35 43 46 45
28 28 27 25 22 19 18 18 18 19 20 21 22 24 25 28 28 22 22 22 23 23 23 22 22 22 21 23 23 25 26 26 27 28 31 28 30 32 33 37 40 43 45
33 32 30 29 28 26 23 22 22 22 22 24 25 26 27 28 26 24 25 25 24 24 22 23 23 23 24 25 24 25 26 24 27 28 32 31 33 33 35 37 40 42 45
38 36 35 33 31 31 28 26 26 25 25 26 27 27 29 27 25 24 25 27 25 24 23 24 25 26 25 24 24 25 26 26 29 32 33 31 33 36 37 38 39 40 41
40 38 38 36 34 34 32 29 29 27 27 27 29 29 31 30 28 27 26 27 25 25 25 26 27 25 23 24 23 26 28 29 31 35 33 34 36 38 40 42 42 42 43
44 41 41 40 38 36 35 33 32 31 29 29 32 32 32 33 31 30 29 27 25 25 26 27 26 24 23 23 26 27 30 33 35 35 35 36 38 40 42 43 43 44 45
47 45 45 43 41 40 39 37 35 33 33 32 33 33 35 34 33 31 29 28 26 26 27 26 26 26 26 27 28 31 33 34 34 35 39 40 41 43 44 43 44 46 47
50 49 47 46 44 43 42 41 38 37 37 35 33 34 38 35 33 30 28 28 28 28 28 27 27 27 29 31 33 34 36 37 38 38 38 39 42 42 43 43 45 49 51
51 49 48 48 46 45 44 42 40 39 37 36 36 38 39 35 33 29 28 28 29 29 29 28 29 30 32 34 35 36 38 39 40 40 41 43 43 44 46 48 50 53 54
Wind_Direction
41 36 49 52 64 70 70 75 92 102 96 88 93 91 84 80 89 152 146 140 143 130 126 125 137 137 147 153 161 149 145 132 158 148 116 71 41 86 91 74 27 343 332
53 47 51 54 64 73 70 73 79 88 92 84 88 90 90 86 80 70 109 168 144 146 156 176 148 140 147 125 134 141 129 127 156 197 201 167 155 131 136 132 161 285 304
56 56 59 64 64 70 74 63 64 75 79 73 73 80 86 87 88 87 69 77 91 94 94 103 120 182 153 134 125 128 119 130 151 227 183 176 157 152 164 192 287 302 309
56 62 65 72 73 71 69 64 53 59 69 74 68 69 74 83 88 94 96 90 95 98 96 95 95 100 106 122 125 120 120 163 170 209 168 155 154 164 222 303 315 321 319
69 69 67 74 83 81 69 58 52 55 64 70 73 66 68 70 77 86 92 97 90 90 94 93 89 92 90 93 92 93 91 74 109 171 162 174 183 212 266 306 321 327 322
77 70 71 74 77 79 73 61 54 59 63 66 70 70 66 67 67 71 81 79 80 83 83 83 84 81 80 77 75 74 78 122 167 176 182 197 210 255 297 314 321 321 322
88 84 83 80 81 79 78 73 68 63 70 72 70 70 69 68 68 67 68 72 79 82 79 77 71 60 49 47 41 39 47 132 197 199 215 243 277 297 305 306 309 313 311
86 94 96 95 92 88 81 79 75 70 66 67 72 72 72 73 73 69 67 67 67 69 68 70 72 68 54 36 38 47 53 207 224 239 259 282 292 298 299 305 310 313 314
102 92 90 93 90 88 85 80 78 73 71 69 67 68 68 69 71 73 74 75 72 70 67 59 63 69 65 54 48 39 331 258 260 272 288 284 291 298 302 307 310 310 310
109 108 115 99 92 89 88 82 79 78 74 68 63 63 64 63 63 60 62 64 68 74 82 88 80 72 73 64 59 27 327 310 298 294 303 295 298 299 301 303 303 303 305
166 145 114 107 103 98 84 74 67 59 55 54 51 46 46 47 44 37 35 35 34 38 34 22 15 340 344 318 307 298 289 285 285 286 287 290 292 294 296 296 297 299 300
205 207 203 213 201 62 52 44 44 37 33 36 34 35 28 27 25 24 17 8 1 353 343 332 322 315 304 292 282 279 281 282 284 285 289 288 290 291 292 293 294 295 296
222 217 217 221 230 245 265 280 309 324 336 340 351 357 359 358 355 350 348 344 340 336 332 329 324 316 306 298 289 287 287 286 285 284 285 285 289 290 293 293 294 294 294
234 228 226 226 237 243 253 270 275 293 306 307 307 312 313 312 312 311 308 307 309 311 310 309 307 304 301 300 300 300 298 295 295 295 296 295 296 297 295 296 296 297 296
244 236 231 239 241 250 261 271 278 281 290 295 298 302 307 310 309 304 297 295 292 291 290 290 290 291 295 296 298 298 299 298 299 299 299 300 297 299 303 303 301 299 300
240 238 235 243 249 256 264 269 274 279 283 285 294 302 306 305 301 300 295 291 286 284 285 285 287 290 292 295 293 292 291 289 289 288 288 288 290 288 288 292 289 286 288
234 236 239 252 256 260 265 272 272 274 273 280 287 295 301 304 303 298 295 289 291 293 294 292 293 294 296 293 288 287 287 286 286 287 287 289 289 293 294 283 291 302 290
236 239 250 259 266 265 265 270 270 269 276 279 290 297 301 301 300 295 292 290 292 294 292 295 297 298 296 295 292 294 292 293 293 292 291 295 301 294 296 295 290 297 295
244 244 250 257 267 268 268 269 272 271 273 276 288 299 302 301 300 294 294 294 298 298 296 301 301 302 304 299 301 299 299 299 303 299 302 307 301 302 299 295 296 293 294
249 250 253 255 262 268 269 269 271 271 268 272 280 295 301 302 297 293 293 295 299 299 300 301 302 304 302 302 301 302 301 306 297 305 301 304 300 300 299 299 298 297 295
248 250 255 258 261 263 265 270 270 270 273 273 276 292 301 300 297 292 293 296 297 297 297 299 302 301 302 302 304 301 302 302 303 301 305 301 302 303 306 306 303 302 301
252 254 256 261 261 260 262 266 270 270 274 277 281 289 298 300 298 295 294 294 294 295 298 299 298 298 299 300 299 299 300 301 302 302 305 304 304 309 310 310 306 304 302
253 255 258 262 261 262 264 268 272 276 277 278 281 286 292 296 295 295 293 290 290 291 294 294 295 297 296 294 297 300 303 304 304 304 303 302 306 309 310 309 306 305 304
253 255 258 261 264 265 268 271 274 277 278 279 282 285 290 291 290 289 287 288 289 290 293 295 295 295 291 293 298 301 302 302 302 304 304 304 306 306 307 306 305 305 304
253 256 259 259 261 264 268 272 275 277 279 281 281 286 289 288 285 283 282 284 287 291 293 293 291 290 290 293 297 301 302 303 304 304 303 305 305 305 305 303 302 302 302
252 254 255 257 260 263 267 272 275 277 279 282 283 284 283 283 282 279 280 283 286 289 290 288 288 290 292 295 298 300 302 304 305 306 307 306 302 302 304 305 304 303 303
Height
5852 5850 5849 5848 5847 5846 5846 5847 5848 5846 5844 5843 5842 5842 5840 5840 5840 5839 5841 5842 5844 5847 5849 5851 5854 5856 5859 5861 5863 5864 5865 5866 5867 5868 5869 5870 5872 5872 5874 5875 5876 5878 5878
5853 5853 5851 5850 5850 5849 5849 5850 5851 5850 5848 5846 5846 5845 5844 5843 5843 5841 5844 5845 5847 5850 5853 5853 5855 5858 5861 5861 5863 5865 5866 5867 5869 5869 5870 5871 5873 5873 5875 5876 5877 5877 5877
5856 5855 5854 5854 5852 5853 5853 5854 5853 5852 5850 5849 5848 5848 5847 5846 5845 5846 5848 5849 5848 5852 5854 5856 5858 5859 5860 5863 5864 5866 5866 5868 5869 5870 5871 5872 5873 5874 5875 5875 5876 5876 5876
5859 5857 5858 5857 5856 5855 5856 5857 5856 5855 5853 5851 5850 5850 5850 5850 5850 5850 5851 5853 5853 5855 5856 5858 5858 5860 5862 5864 5865 5866 5866 5868 5869 5871 5871 5873 5874 5874 5875 5875 5875 5875 5875
5861 5860 5860 5859 5859 5858 5858 5859 5859 5857 5856 5855 5854 5854 5853 5853 5853 5854 5854 5855 5856 5857 5859 5859 5861 5863 5864 5866 5866 5866 5869 5869 5870 5871 5872 5872 5873 5874 5874 5874 5875 5874 5874
5862 5862 5863 5862 5861 5860 5860 5860 5859 5859 5858 5856 5856 5856 5855 5854 5854 5854 5857 5857 5858 5860 5861 5862 5863 5864 5865 5866 5866 5867 5869 5869 5870 5871 5872 5872 5872 5873 5874 5875 5874 5873 5873
5864 5864 5864 5864 5863 5863 5862 5862 5861 5860 5858 5858 5858 5857 5857 5857 5857 5857 5857 5858 5859 5860 5862 5864 5865 5866 5867 5867 5868 5868 5870 5870 5871 5872 5872 5873 5873 5873 5873 5873 5872 5872 5872
5866 5866 5866 5865 5865 5864 5864 5863 5862 5862 5860 5859 5859 5859 5859 5859 5859 5859 5860 5860 5861 5862 5864 5865 5865 5865 5866 5867 5868 5868 5869 5870 5871 5871 5872 5872 5873 5872 5872 5871 5871 5870 5869
5868 5868 5868 5867 5866 5865 5864 5864 5863 5862 5862 5861 5861 5861 5861 5860 5860 5861 5862 5862 5862 5863 5864 5865 5866 5866 5867 5868 5868 5869 5869 5869 5869 5869 5871 5870 5871 5870 5870 5868 5867 5867 5865
5868 5869 5869 5868 5867 5867 5866 5866 5865 5864 5864 5863 5863 5863 5863 5863 5863 5863 5862 5863 5864 5864 5865 5866 5866 5866 5867 5867 5868 5867 5867 5867 5867 5868 5869 5868 5868 5867 5866 5865 5864 5863 5862
5868 5869 5870 5869 5868 5868 5868 5867 5867 5867 5867 5867 5866 5865 5865 5865 5865 5865 5865 5865 5866 5866 5866 5866 5866 5867 5866 5867 5867 5867 5867 5867 5867 5867 5868 5866 5866 5865 5864 5863 5862 5860 5858
5867 5868 5869 5869 5869 5869 5869 5869 5869 5869 5868 5868 5868 5867 5867 5866 5867 5867 5867 5867 5867 5867 5867 5867 5866 5866 5866 5866 5867 5867 5866 5866 5866 5866 5866 5864 5863 5862 5861 5859 5858 5856 5854
5866 5867 5868 5869 5869 5869 5869 5869 5870 5869 5869 5870 5869 5869 5868 5868 5867 5867 5867 5867 5867 5867 5866 5866 5866 5866 5866 5866 5866 5865 5864 5864 5863 5862 5862 5861 5859 5858 5856 5854 5852 5851 5849
5866 5866 5866 5867 5867 5868 5868 5869 5869 5869 5869 5869 5869 5869 5869 5869 5868 5868 5867 5866 5866 5865 5866 5865 5865 5864 5864 5864 5863 5863 5862 5861 5859 5858 5857 5856 5854 5851 5850 5850 5848 5846 5844
5866 5866 5866 5866 5866 5867 5867 5867 5867 5867 5868 5868 5867 5867 5867 5867 5867 5867 5866 5865 5865 5864 5864 5864 5863 5862 5862 5861 5861 5860 5859 5858 5856 5854 5853 5851 5849 5847 5844 5843 5842 5839 5838
5863 5865 5864 5864 5864 5865 5865 5865 5865 5866 5866 5866 5866 5866 5865 5865 5864 5863 5863 5863 5862 5862 5862 5861 5860 5860 5859 5859 5858 5857 5856 5854 5853 5851 5848 5846 5846 5843 5841 5837 5831 5829 5827
5858 5861 5862 5862 5862 5862 5863 5863 5863 5863 5863 5864 5864 5863 5863 5862 5861 5860 5859 5858 5858 5857 5857 5857 5856 5855 5855 5854 5853 5851 5850 5848 5847 5844 5842 5840 5838 5836 5833 5831 5824 5818 5819
5854 5856 5857 5859 5859 5859 5859 5860 5860 5861 5860 5861 5861 5860 5860 5858 5857 5857 5856 5855 5855 5854 5853 5853 5852 5851 5850 5848 5847 5845 5843 5841 5839 5837 5834 5832 5833 5829 5827 5824 5815 5813 5811
5849 5851 5852 5854 5855 5855 5856 5856 5856 5857 5857 5856 5856 5856 5854 5853 5852 5851 5851 5850 5850 5850 5848 5847 5846 5844 5843 5841 5840 5838 5836 5834 5832 5829 5825 5828 5823 5822 5819 5815 5811 5806 5804
5844 5846 5847 5849 5850 5851 5852 5852 5852 5852 5852 5853 5852 5852 5851 5848 5847 5847 5845 5845 5845 5843 5842 5841 5839 5838 5837 5836 5834 5832 5830 5829 5824 5824 5819 5819 5815 5813 5809 5806 5802 5797 5792
5837 5839 5841 5843 5844 5845 5846 5847 5847 5847 5847 5848 5847 5847 5845 5844 5843 5842 5841 5840 5839 5838 5836 5835 5834 5833 5831 5830 5828 5826 5824 5822 5819 5815 5815 5811 5807 5804 5800 5797 5792 5788 5783
5830 5833 5835 5836 5838 5838 5839 5841 5841 5841 5842 5842 5841 5841 5840 5838 5837 5837 5836 5834 5834 5832 5831 5829 5828 5827 5826 5824 5823 5821 5819 5817 5814 5808 5806 5803 5798 5795 5790 5786 5782 5777 5773
5821 5825 5827 5828 5830 5831 5832 5834 5834 5835 5836 5836 5836 5835 5834 5833 5832 5831 5830 5829 5828 5827 5825 5824 5823 5821 5820 5819 5818 5816 5812 5810 5805 5801 5799 5795 5790 5785 5781 5776 5771 5767 5762
5814 5816 5818 5820 5822 5823 5825 5825 5827 5828 5829 5830 5829 5828 5828 5827 5826 5825 5824 5823 5822 5821 5819 5818 5817 5815 5814 5813 5811 5809 5806 5802 5800 5795 5789 5786 5781 5777 5772 5767 5763 5757 5752
5805 5807 5809 5812 5814 5815 5817 5818 5820 5821 5822 5822 5822 5822 5821 5820 5820 5819 5818 5817 5816 5814 5813 5812 5810 5809 5808 5806 5804 5801 5797 5794 5790 5788 5784 5778 5772 5768 5763 5758 5754 5748 5743
5795 5798 5800 5803 5805 5808 5810 5812 5814 5814 5815 5815 5815 5815 5815 5814 5813 5812 5812 5811 5810 5808 5807 5806 5804 5802 5800 5798 5795 5792 5789 5785 5781 5778 5775 5771 5766 5762 5754 5748 5742 5737 5731